Flag for Turkey Weather past 2 weeks in Ankara, Turkey

Now
61 °F

Scattered clouds.


Feels Like: 61 °F
Forecast: 44 / 74 °F
Wind: 7 mph from North

Location: Ankara / Esenboga


UV Index: 5 (Moderate)

Visibility: N/A


Pressure: 29.98 "Hg

Humidity: 42%

Dew point: 37 °F

Location of AnkaraLocation

Historic Weather in Ankara

°F

Ankara temperature yesterday

Maximum temperature yesterday: 63 °F (at 3:50 PM)
Minimum temperature yesterday: 34 °F (at 5:50 AM)
Average temperature yesterday: 50 °F

Past Weeks' High & Low Weather Summary

 TemperatureHumidityPressure
High72 °F (Apr 17, 4:50 PM)93% (Apr 9, 4:20 AM)30.07 "Hg (Apr 9, 4:20 AM)
Low30 °F (Apr 9, 4:20 AM)14% (Apr 7, 6:20 PM)29.74 "Hg (Apr 18, 11:50 AM)
Average52 °F59%29.93 "Hg
* Reported Apr 6 3:20 PM — Apr 21 3:50 PM, Ankara, Weather by CustomWeather, © 2014

Note: Actual official high and low records may vary slightly from our data, if they occured in-between our weather recording intervals... More about our weather records

Advertising

Historic Weather Conditions — Data for Previous 24 hours

 ConditionsComfort  
Time TempWeatherWind HumidityBarometerVisibility
3:50 PM
Apr 21
63 °FScattered clouds.5 mph42%29.98 "HgN/A
3:20 PM63 °FScattered clouds.7 mph45%29.98 "HgN/A
2:50 PM59 °FScattered clouds.6 mph48%30.01 "HgN/A
2:20 PM59 °FScattered clouds.6 mph51%30.01 "HgN/A
1:50 PM57 °FScattered clouds.7 mph55%30.01 "HgN/A
1:20 PM59 °FScattered clouds.9 mph51%30.01 "HgN/A
12:50 PM57 °FPartly sunny.12 mph55%30.01 "HgN/A
12:20 PM61 °FPartly sunny.7 mph48%30.01 "HgN/A
11:50 AM57 °FPartly sunny.7 mph55%30.01 "HgN/A
11:20 AM55 °FPartly sunny.6 mph55%30.01 "HgN/A
10:50 AM57 °FScattered clouds.7 mph59%30.01 "HgN/A
10:20 AM55 °FScattered clouds.9 mph59%30.01 "HgN/A
9:50 AM54 °FScattered clouds.2 mph67%30.01 "HgN/A
9:20 AM52 °FScattered clouds.5 mph77%30.01 "HgN/A
8:50 AM50 °FScattered clouds.5 mph76%30.01 "HgN/A
8:20 AM48 °FScattered clouds.2 mph82%30.01 "HgN/A
7:50 AM48 °FScattered clouds.2 mph82%30.01 "HgN/A
7:20 AM46 °FScattered clouds.2 mph87%29.98 "HgN/A
6:50 AM45 °FPassing clouds.1 mph87%29.98 "HgN/A
6:20 AM45 °FPassing clouds.2 mph87%29.98 "HgN/A
5:50 AM46 °FPassing clouds.2 mph87%29.95 "HgN/A
5:20 AM46 °FPassing clouds.6 mph82%29.95 "HgN/A
4:50 AM48 °FPassing clouds.5 mph82%29.95 "HgN/A
4:20 AM48 °FSprinkles. Passing clouds.7 mph76%29.95 "HgN/A
3:50 AM50 °FPartly cloudy.5 mph67%29.98 "HgN/A
3:20 AM48 °FSprinkles. Passing clouds.5 mph71%29.98 "HgN/A
2:50 AM48 °FPassing clouds.5 mph71%29.95 "HgN/A
2:20 AM46 °FPassing clouds.6 mph71%29.95 "HgN/A
1:50 AM46 °FPassing clouds.3 mph71%29.95 "HgN/A
1:20 AM45 °FPassing clouds.3 mph81%29.95 "HgN/A
12:50 AM46 °FPassing clouds.2 mph71%29.95 "HgN/A
11:50 PM
Apr 20
46 °FPassing clouds.3 mph71%29.95 "HgN/A
11:20 PM46 °FPassing clouds.2 mph71%29.95 "HgN/A
10:50 PM46 °FPassing clouds.6 mph71%29.95 "HgN/A
10:20 PM50 °FPassing clouds.5 mph62%29.95 "HgN/A
9:50 PM50 °FPassing clouds.5 mph67%29.95 "HgN/A
9:20 PM54 °FPassing clouds.2 mph54%29.95 "HgN/A
8:50 PM55 °FPassing clouds.3 mph51%29.95 "HgN/A
8:20 PM57 °FScattered clouds.3 mph44%29.95 "HgN/A
7:50 PM57 °FScattered clouds.5 mph44%29.95 "HgN/A
7:20 PM59 °FScattered clouds.6 mph42%29.92 "HgN/A
6:50 PM59 °FScattered clouds.7 mph45%29.92 "HgN/A
6:20 PM61 °FScattered clouds.9 mph39%29.92 "HgN/A
5:50 PM63 °FScattered clouds.7 mph37%29.92 "HgN/A
5:20 PM63 °FScattered clouds.5 mph37%29.92 "HgN/A
4:50 PM63 °FScattered clouds.6 mph39%29.92 "HgN/A
4:20 PM61 °FScattered clouds.7 mph39%29.95 "HgN/A
Weather by CustomWeather, © 2014

See weather overview